Dewpoint
71 70 70 70 72 69 70 69 57 61 60 55 56 59 57 59 61 61 61 63 62 66 65 62 63 62 62 64 64 63 65 62 63 55 54 67 70 71 72 72 72 73 73 73 74 75 76 76 76 76 77 77 77 76 77 77 77 77 77 77 76 76 76 76 76 76 76 76 76 76 75 76 76 76 76 75 76 76 75 75 75 74 75 74 74 75 75 75 75 75 75 75 75 74 74 74 74
69 68 69 69 70 71 65 70 59 58 58 55 55 59 58 60 61 61 60 63 65 64 65 62 65 64 63 62 62 63 64 65 66 66 68 70 71 72 73 72 72 72 73 74 75 75 75 76 77 76 77 76 77 77 77 77 77 77 77 77 76 76 76 76 76 77 76 76 76 76 76 76 76 76 75 76 76 75 75 75 75 75 74 74 74 75 75 75 75 75 74 74 74 74 74 74 74
68 68 69 69 68 70 69 68 56 56 54 51 53 56 58 59 61 63 64 64 65 65 65 64 66 66 61 62 63 62 62 66 67 67 68 70 69 70 72 72 72 72 73 74 75 75 75 76 77 77 76 77 77 77 77 77 77 77 77 77 77 76 76 76 77 77 76 76 76 76 76 76 76 76 76 76 76 75 76 75 74 75 75 74 74 75 75 75 74 75 74 74 74 74 73 73 74
69 69 69 68 66 71 63 62 59 56 55 54 55 56 62 61 60 62 63 63 64 64 63 63 65 64 63 61 62 64 63 64 67 66 67 68 69 71 71 71 72 73 73 74 74 75 75 77 77 77 76 77 77 77 77 77 77 77 77 77 76 76 76 76 77 77 76 76 75 76 76 75 75 75 76 76 76 75 75 75 75 75 75 74 74 75 74 74 75 75 75 74 74 74 74 74 74
69 69 69 68 68 62 62 60 59 58 55 58 55 56 58 62 63 64 64 64 64 64 62 63 61 63 63 62 62 62 63 66 66 67 67 69 70 70 71 71 71 72 72 73 74 74 75 77 77 77 76 77 77 77 77 77 77 77 77 77 76 76 76 77 77 76 76 76 76 76 75 75 75 76 76 76 75 75 75 75 75 75 74 74 74 74 74 75 75 75 75 74 74 74 74 74 74
69 69 72 73 65 69 65 59 58 57 57 61 58 58 61 62 61 62 63 65 65 65 62 63 61 62 63 62 63 63 64 63 66 67 68 68 70 70 71 71 71 71 71 72 73 74 75 77 77 77 77 77 77 77 77 77 77 77 77 76 77 77 77 77 76 76 76 76 76 75 75 75 75 75 76 76 75 75 75 75 74 74 74 74 75 74 74 74 75 75 75 75 74 74 74 74 74
70 72 72 71 68 69 59 58 57 57 57 60 56 61 62 60 60 62 62 63 65 65 66 61 59 60 60 62 63 64 65 66 66 67 68 69 69 70 70 70 69 69 70 72 74 75 76 77 77 77 77 77 77 77 77 77 77 77 77 77 77 77 76 76 76 76 76 76 76 75 75 75 75 76 76 76 76 75 75 75 74 74 74 74 75 74 74 74 75 75 75 75 75 74 74 74 74
74 69 68 64 61 63 58 58 56 62 56 59 58 60 62 62 61 62 61 61 61 64 63 60 58 59 59 61 61 64 66 66 67 68 68 69 69 69 69 69 68 69 70 73 74 75 77 77 77 77 77 77 77 77 77 77 77 77 77 77 77 77 76 76 76 76 76 75 75 75 75 75 75 75 76 76 75 75 75 75 75 74 74 74 74 75 74 74 74 75 74 74 74 74 74 74 74
71 70 68 65 60 61 57 55 54 54 55 57 60 60 64 65 65 64 63 62 61 59 58 57 58 57 59 61 62 64 66 67 67 69 68 68 68 69 68 68 68 69 72 73 74 76 76 77 77 77 77 77 77 77 77 77 77 77 77 77 76 76 76 76 76 76 76 75 75 75 75 75 75 74 74 74 75 76 75 75 75 75 75 75 74 74 74 74 74 74 75 75 75 74 74 74 74
70 68 64 62 61 56 52 49 51 54 56 59 61 62 64 63 61 61 58 56 56 57 56 58 59 60 62 61 63 65 65 67 67 67 67 68 69 68 67 68 69 71 72 74 75 76 76 78 77 77 77 76 76 76 77 77 77 77 77 77 77 76 76 76 76 76 75 75 75 75 75 75 75 74 74 74 74 74 74 75 75 74 74 74 74 73 72 73 73 74 74 74 74 74 74 74 74
65 67 66 61 57 54 52 51 49 57 59 60 65 62 63 61 56 55 56 56 57 57 58 59 59 60 61 62 63 67 67 67 66 65 67 67 67 67 67 69 70 71 74 74 74 75 76 76 77 77 77 76 76 76 77 77 77 77 77 77 77 76 76 76 76 76 76 75 75 75 75 75 75 74 74 74 74 74 74 74 74 75 75 75 75 75 74 74 74 74 74 73 74 74 74 74 75
62 63 64 59 55 53 53 52 52 53 56 57 59 59 61 60 62 55 56 56 57 57 58 59 59 61 61 62 65 66 67 67 66 66 66 67 67 68 69 69 69 72 74 73 74 75 76 76 76 77 76 76 76 77 77 77 77 78 77 77 76 76 76 76 76 76 76 76 76 76 75 75 75 75 74 74 74 74 74 74 74 74 74 74 74 74 74 74 74 74 74 74 74 74 74 73 75
62 63 61 57 56 56 54 54 50 51 53 56 56 63 62 58 56 55 55 57 57 57 58 60 61 61 60 62 65 65 66 67 67 66 66 66 68 69 69 69 71 72 72 74 75 75 76 76 75 76 75 76 77 77 77 77 77 77 77 77 77 76 76 76 76 76 76 76 76 76 75 75 75 75 74 74 74 74 74 74 74 74 74 74 74 74 74 75 75 75 74 74 74 74 74 74 74
61 62 61 57 58 57 56 54 52 53 51 55 59 62 61 61 56 54 53 55 57 57 59 60 61 61 61 62 64 63 65 67 67 67 66 68 69 69 69 70 71 71 72 73 73 74 75 75 75 75 75 75 76 77 77 77 77 77 77 77 77 76 76 76 76 76 76 76 76 76 75 75 75 75 75 75 75 75 74 74 74 74 74 74 74 74 74 75 75 75 75 74 75 75 74 75 75
60 65 61 59 56 54 53 52 50 47 48 54 57 56 56 56 57 54 54 53 54 59 59 61 62 61 59 61 61 62 64 65 66 66 67 67 68 68 69 69 69 71 71 72 73 73 74 74 75 75 75 75 76 76 76 76 77 77 77 77 77 77 76 76 76 76 76 76 76 76 75 75 75 75 75 75 75 75 75 75 74 74 73 74 74 74 74 74 74 75 75 75 75 75 75 74 75
61 61 60 57 55 54 53 50 49 49 50 53 50 52 60 57 59 56 54 55 56 58 59 59 61 60 61 61 61 62 63 64 65 66 66 67 68 68 68 69 70 70 71 72 73 73 73 74 74 75 75 76 76 76 76 76 77 77 77 77 77 77 77 76 76 76 76 76 76 76 75 75 75 74 75 75 75 75 75 74 75 75 75 75 74 75 75 74 74 74 75 75 75 75 75 75 75
58 59 57 55 53 53 52 48 47 45 46 50 55 58 52 53 53 58 54 55 56 56 57 59 57 62 61 61 62 63 64 66 66 66 66 67 67 67 67 68 69 70 71 72 72 72 73 73 74 74 75 75 75 75 76 76 76 77 77 77 77 77 77 77 77 76 76 76 76 76 76 76 76 75 74 75 76 76 74 75 75 75 75 75 75 75 74 75 74 74 74 75 75 75 75 75 75
55 57 55 53 55 52 52 51 48 46 52 50 52 53 52 55 53 47 51 53 53 55 57 58 61 61 62 61 62 63 65 65 65 64 66 67 67 66 66 67 68 69 70 71 71 71 72 73 73 73 74 75 74 75 76 76 76 76 76 76 76 76 76 76 76 76 77 76 76 76 76 76 76 75 75 75 76 76 75 75 75 75 75 75 75 75 75 75 75 74 75 75 75 75 75 76 76
51 50 52 51 52 53 54 52 48 51 47 50 50 50 51 47 49 53 52 51 51 50 55 58 60 60 62 62 62 63 64 63 64 65 65 66 66 66 66 66 67 69 69 70 70 70 71 72 72 72 73 73 74 75 76 76 76 76 76 76 76 77 77 77 76 77 76 76 76 76 77 76 75 76 76 77 77 76 76 76 75 76 75 76 76 76 75 76 75 74 75 75 75 75 77 76 76
52 49 53 52 52 53 52 50 48 48 48 49 49 49 47 51 51 54 49 50 51 53 54 59 60 60 60 61 62 62 63 63 64 64 64 65 66 65 65 66 67 68 68 69 69 70 71 70 70 71 72 72 74 74 75 76 76 76 76 76 76 76 76 77 76 76 76 76 76 75 76 76 76 76 76 76 75 76 75 76 76 75 76 75 76 76 76 75 75 75 75 75 76 77 75 75 76
50 49 46 51 52 51 51 50 48 48 49 49 48 49 47 52 50 52 50 49 52 54 56 58 59 60 61 62 61 62 62 62 63 64 64 65 66 66 66 66 66 67 67 67 68 69 69 69 70 70 71 72 72 74 74 75 75 75 75 75 75 76 76 76 75 76 76 76 75 76 75 76 76 76 76 76 75 76 75 76 75 76 76 76 76 76 77 77 76 76 76 77 75 76 76 75 74
47 48 48 46 53 51 51 49 48 47 48 48 49 50 45 46 52 51 51 50 51 53 57 58 58 59 60 60 61 61 60 61 62 63 64 65 65 66 66 67 67 67 67 67 67 67 67 69 70 70 71 71 72 73 74 75 75 74 75 75 75 75 75 75 75 75 76 76 76 76 75 75 75 76 76 75 75 75 75 75 75 75 76 76 78 75 76 76 75 75 75 75 75 75 74 73 72
43 46 47 46 52 49 48 47 47 47 47 46 47 50 48 50 51 53 52 51 51 54 57 58 58 58 60 60 60 60 59 60 61 62 64 65 65 65 66 67 67 68 68 69 69 68 68 70 70 70 71 71 71 72 73 74 74 74 74 74 74 74 75 74 75 75 75 76 75 75 74 74 74 75 74 74 74 75 75 75 74 75 75 75 77 75 75 76 76 76 75 76 75 75 73 72 73
44 44 45 45 51 48 47 47 49 48 48 47 48 44 43 48 48 51 50 50 52 53 58 58 59 59 59 60 60 60 59 60 61 62 63 64 65 65 66 67 68 69 69 69 70 70 71 70 71 70 71 70 71 72 73 73 73 73 73 75 74 74 74 74 74 75 76 77 76 75 75 73 73 73 74 74 74 76 75 75 75 75 75 75 77 76 75 76 76 76 77 75 75 74 74 73 72
43 43 45 46 45 46 45 45 46 48 48 48 50 45 46 44 45 46 47 53 53 55 58 58 58 58 57 58 59 59 60 61 61 62 63 63 64 65 66 67 68 69 69 70 70 71 71 71 71 70 71 71 71 72 72 72 71 72 73 73 73 76 74 74 74 75 75 77 76 75 75 73 72 73 72 74 74 74 75 74 74 75 74 75 76 75 75 75 75 76 75 75 74 74 73 73 72
42 43 45 45 44 44 46 45 45 47 46 46 47 45 45 45 46 45 50 52 53 57 58 58 58 58 57 57 58 59 60 61 61 62 62 62 64 64 65 66 68 68 69 70 70 71 71 71 71 71 72 72 72 72 73 71 70 71 72 72 72 76 73 73 74 74 75 75 76 76 75 73 72 72 72 74 74 74 75 76 76 75 76 75 73 73 75 75 74 74 75 74 73 74 73 72 72
42 43 43 43 43 43 45 45 46 46 45 46 45 42 39 40 43 46 47 50 53 57 57 58 58 58 57 57 58 58 60 61 60 63 63 63 63 63 64 65 67 68 69 69 70 70 71 71 71 72 72 73 73 71 72 72 71 72 72 72 72 74 73 74 75 74 75 75 75 76 75 77 75 72 73 75 74 75 75 76 75 76 74 75 74 75 76 76 74 74 74 72 72 72 72 72 72
37 37 42 42 42 43 42 46 46 46 45 46 46 44 39 37 40 47 48 51 53 56 57 57 58 57 57 58 58 59 59 61 61 62 62 62 61 61 63 64 67 67 69 69 69 70 70 71 71 71 73 73 74 71 72 72 72 73 72 73 73 74 74 74 75 75 75 74 74 74 76 76 76 76 76 75 74 75 75 75 76 75 74 76 75 73 75 77 76 77 77 76 74 74 74 72 71
36 36 35 38 40 40 41 41 41 46 46 47 47 42 38 36 35 48 49 51 53 54 56 57 58 58 58 58 58 59 59 59 60 61 61 62 61 61 61 64 66 67 69 69 69 69 68 70 70 71 72 73 73 71 72 72 72 73 72 72 73 73 75 74 74 74 74 74 75 73 75 77 78 77 77 75 77 76 75 76 76 77 78 75 76 77 75 74 75 76 75 76 75 74 73 72 70
37 36 35 34 35 37 39 38 38 44 43 43 42 37 35 32 35 48 49 50 52 53 54 55 57 57 57 58 58 59 59 60 59 60 61 61 61 61 61 62 65 67 68 69 70 68 68 70 70 71 71 72 73 71 72 71 71 71 72 72 73 72 74 73 74 73 74 75 74 75 75 76 76 77 76 77 75 76 75 75 76 74 76 78 77 77 75 76 76 75 74 74 76 75 70 62 65
33 34 36 34 35 34 37 38 36 36 39 40 40 36 32 32 33 48 49 49 50 52 52 53 55 56 57 58 57 59 59 60 60 60 60 61 61 62 61 62 64 67 67 68 69 69 70 70 71 71 72 71 73 71 71 71 70 71 71 71 72 72 72 72 72 74 73 74 74 75 75 76 75 77 77 76 76 76 76 77 77 74 75 77 74 77 75 74 75 74 75 74 72 71 62 70 62
31 31 31 34 35 36 37 38 35 35 37 40 39 34 33 32 34 46 48 49 50 51 52 53 54 55 56 57 57 58 58 59 59 60 60 60 61 62 62 62 64 66 66 67 68 69 68 69 70 70 71 71 71 71 71 72 71 71 71 73 72 72 72 71 71 72 72 74 74 75 75 76 75 76 77 77 77 77 75 75 77 77 76 78 77 77 76 76 76 75 76 73 69 65 68 60 66
30 31 30 32 35 35 35 36 35 34 35 37 36 32 32 32 35 44 46 48 48 49 51 52 52 54 54 57 57 58 58 58 58 58 59 60 61 62 62 61 64 65 66 66 67 68 68 69 70 70 71 71 71 71 71 72 71 72 72 71 72 71 71 70 71 70 71 73 74 75 76 76 76 76 76 77 76 76 75 75 77 77 78 77 77 77 76 77 76 75 75 75 68 68 61 56 61
29 30 29 29 32 35 34 34 32 32 32 33 34 32 31 30 35 43 45 48 48 47 49 50 51 53 53 58 58 57 58 58 57 57 58 60 61 61 61 64 63 64 66 66 67 67 67 68 69 69 71 70 70 72 71 73 71 73 72 70 73 70 71 70 71 70 70 72 74 74 76 76 76 76 76 76 76 77 75 75 75 75 78 77 77 77 76 74 75 75 74 73 72 67 61 59 59
29 28 27 26 26 28 32 30 29 28 31 30 33 32 30 32 40 42 44 47 47 48 49 50 50 52 53 57 57 57 57 57 58 58 59 59 59 60 61 63 63 64 65 65 67 67 67 68 69 70 70 70 70 73 71 73 72 74 72 70 72 70 71 71 70 70 70 71 73 74 76 76 76 76 76 77 75 77 75 74 73 75 77 77 77 76 75 75 74 74 73 68 72 67 59 59 60
28 29 24 24 24 24 25 28 28 26 30 30 30 30 29 31 38 41 43 45 47 48 49 49 50 52 53 56 56 56 57 57 58 58 59 59 60 61 60 63 63 63 64 65 67 67 67 68 68 70 70 71 71 73 72 72 72 73 71 71 71 73 70 72 74 70 70 70 72 74 75 75 76 75 76 76 75 76 75 74 74 76 76 76 76 73 74 74 75 74 72 68 70 70 67 66 60
28 29 25 23 23 23 25 25 26 26 29 30 30 30 29 31 37 40 43 42 46 49 49 50 51 51 51 55 56 56 57 57 58 59 58 59 60 61 62 62 63 63 63 65 66 66 68 68 69 70 70 71 71 73 72 71 71 72 71 71 70 72 70 71 73 74 70 70 73 74 75 75 76 75 76 76 76 77 76 76 75 74 76 76 75 74 74 74 75 75 75 73 69 69 66 67 63
22 25 25 22 23 22 23 23 25 25 26 30 31 30 31 32 34 41 42 41 49 50 50 51 52 51 52 53 55 55 57 59 58 59 58 59 60 61 62 63 64 63 63 65 66 66 69 68 69 70 71 71 71 72 72 71 71 71 70 71 71 72 72 71 71 72 71 69 74 75 75 75 75 76 76 76 76 76 75 75 76 74 76 76 77 75 74 76 75 75 71 71 73 66 65 61 65
21 23 25 24 20 22 23 23 23 24 25 29 30 30 30 31 31 41 41 40 49 50 51 51 51 52 53 53 55 56 57 58 58 58 58 58 60 61 61 63 63 63 63 64 66 66 69 68 70 70 71 71 71 72 72 71 71 71 71 71 71 71 73 72 71 72 73 69 74 75 75 75 75 75 76 76 75 76 75 74 75 75 76 77 76 75 75 74 75 73 71 70 67 66 69 67 65
21 24 25 23 21 18 18 21 22 22 24 26 31 28 29 30 31 40 41 41 47 50 50 51 51 52 53 53 54 56 57 58 57 57 57 58 60 61 61 62 63 64 64 65 66 67 69 69 70 71 71 71 71 72 72 71 71 71 71 72 71 71 71 72 72 72 71 71 74 74 75 75 75 75 76 76 76 76 75 75 75 75 76 77 75 76 75 74 73 72 71 72 69 62 63 59 68
21 24 26 24 20 18 17 20 21 22 22 25 28 29 30 29 28 37 40 42 42 49 50 50 51 53 54 53 55 56 57 58 57 57 57 57 58 60 61 62 63 64 65 65 66 66 69 68 70 71 71 71 72 72 72 72 72 71 71 72 72 72 72 71 70 70 70 71 71 73 74 75 75 75 75 76 76 75 76 75 75 76 76 76 76 75 75 74 73 72 72 72 67 68 67 59 63
24 25 26 23 19 17 17 18 19 20 21 25 26 28 29 31 29 30 39 39 40 48 47 48 52 53 53 53 55 57 58 58 58 57 57 57 58 60 61 63 62 63 65 66 66 67 68 69 70 71 71 71 71 72 71 72 71 71 70 71 69 70 69 69 68 69 69 68 69 71 74 75 75 75 75 75 75 76 76 76 76 77 76 76 76 76 75 74 72 72 71 72 68 69 68 61 61
25 25 26 24 19 17 17 17 15 21 22 23 24 25 31 31 28 29 36 37 39 46 46 47 51 53 52 53 56 56 58 58 58 58 58 58 58 60 61 62 62 63 65 66 67 67 67 69 70 70 71 71 71 71 71 72 71 71 69 70 69 68 69 69 69 69 69 69 69 69 73 74 74 74 75 75 74 75 76 76 76 76 76 76 77 76 75 74 73 71 71 69 68 72 70 63 62
20 20 20 19 17 17 18 17 14 17 21 22 21 22 26 30 27 29 31 37 39 44 44 47 50 52 52 53 56 56 58 59 58 58 59 58 58 59 61 62 63 63 65 66 66 68 67 69 69 70 70 71 71 71 71 71 71 71 70 70 70 68 70 69 69 69 71 71 69 70 72 73 74 74 75 74 74 75 76 76 76 76 76 76 77 76 75 74 73 73 71 72 70 69 67 67 65
17 17 17 16 16 16 17 17 15 13 17 21 20 22 24 27 32 29 27 31 44 42 42 45 50 53 54 54 55 55 56 58 59 59 59 58 59 59 62 62 63 64 65 66 66 68 68 69 70 69 70 70 72 71 71 70 71 71 70 70 70 70 70 72 71 70 71 73 68 70 72 73 74 74 74 75 74 75 76 76 76 76 76 76 77 76 76 75 74 72 71 71 70 70 67 68 67
15 15 18 18 17 16 16 15 13 15 20 20 24 21 22 26 31 30 29 25 39 41 44 46 52 53 54 54 54 55 55 57 59 59 59 59 59 60 62 63 63 64 66 67 67 67 68 69 70 69 69 69 72 71 71 71 71 71 70 70 70 71 70 72 72 70 70 74 69 69 73 73 73 73 73 74 74 75 76 76 76 76 76 76 76 76 75 75 74 73 71 71 71 70 70 67 66
16 15 15 16 15 15 17 15 18 22 15 18 17 15 16 23 28 29 27 25 31 44 47 49 53 53 53 54 54 55 56 58 59 59 60 60 60 60 61 62 63 64 66 66 66 67 68 68 70 70 69 69 71 71 71 70 71 71 70 70 70 71 70 71 72 71 70 72 72 68 72 73 73 73 73 74 74 74 76 76 76 76 76 76 76 75 75 75 75 73 72 72 71 70 70 68 69
17 17 16 16 16 20 18 16 17 14 13 19 15 12 12 15 27 27 28 28 31 47 48 50 52 53 53 54 55 56 57 59 60 60 60 60 61 60 60 61 63 63 65 66 66 67 68 68 69 70 69 69 69 72 71 70 71 70 71 70 70 71 71 70 71 71 71 70 73 70 71 73 73 73 73 73 74 74 76 76 76 76 76 76 76 75 75 74 74 73 73 71 71 71 71 69 67
18 18 17 14 21 15 15 18 12 10 12 18 10 10 9 13 20 31 28 29 28 45 49 51 52 52 53 54 56 57 56 57 58 59 60 60 60 60 60 62 63 63 65 65 65 66 67 68 68 69 69 69 69 72 71 71 70 70 71 71 71 71 71 71 71 72 71 70 72 72 70 73 73 73 73 72 74 73 75 75 75 75 76 76 76 75 76 74 74 73 73 72 71 72 70 70 67
17 17 16 13 15 12 13 16 15 16 14 8 10 13 8 23 17 20 26 26 25 27 35 52 52 52 54 55 56 56 56 57 58 59 60 61 61 61 60 62 64 64 65 65 65 66 67 68 68 69 70 70 69 70 71 70 70 71 71 71 71 71 72 71 71 72 72 71 72 72 71 73 73 73 73 72 73 74 74 75 75 75 76 76 76 75 76 75 74 74 74 72 70 71 71 70 68
15 16 14 15 15 15 12 13 10 12 22 9 5 10 9 7 14 26 22 27 23 28 41 52 52 53 55 55 55 55 55 56 58 59 60 61 61 61 61 62 64 64 65 65 65 66 67 68 68 69 69 70 70 70 71 71 70 71 71 71 71 71 72 72 72 73 73 72 72 72 72 72 73 73 73 73 74 73 74 75 75 75 76 76 76 76 76 76 76 74 74 73 71 71 71 71 69
14 15 14 16 14 20 16 18 15 21 21 21 10 6 17 14 23 21 26 20 21 22 50 52 51 53 54 54 54 54 55 57 58 59 60 60 61 61 61 63 64 64 65 65 65 67 67 68 68 69 69 70 70 70 71 71 71 71 71 71 72 72 72 72 72 73 74 73 72 71 72 72 73 74 74 74 74 73 74 75 75 75 76 76 76 76 76 76 76 74 74 73 72 73 70 72 70
13 12 11 12 16 14 22 32 20 26 23 17 31 23 13 14 13 21 16 19 20 21 43 52 52 53 53 54 54 55 56 57 58 59 59 60 60 61 61 62 64 65 64 65 66 67 67 68 68 68 69 70 70 70 70 71 71 71 71 72 72 72 72 72 72 72 73 73 73 72 71 72 73 73 74 75 74 73 73 74 75 75 75 76 76 76 76 76 76 75 73 73 73 72 71 70 71
11 10 11 16 18 16 16 18 26 16 14 18 13 13 18 10 13 12 15 16 16 17 22 48 51 53 53 53 55 56 56 57 57 58 59 60 61 62 61 61 64 64 64 65 67 67 68 69 69 69 69 70 70 71 70 71 72 71 71 72 72 72 72 72 72 73 73 73 73 72 71 72 72 73 74 75 74 74 74 76 75 75 75 75 76 76 76 76 75 75 74 73 73 73 71 71 71
13 10 15 12 12 9 18 25 16 18 15 14 13 10 14 14 20 12 10 11 15 16 17 19 50 52 52 53 54 56 56 56 57 58 59 60 62 62 62 62 63 64 65 65 67 67 68 69 69 69 69 70 70 71 71 71 72 72 72 72 72 72 73 72 73 73 73 73 73 73 72 72 72 73 74 74 74 73 74 74 75 74 75 75 75 75 76 76 76 75 74 74 73 73 72 71 71
18 16 13 14 15 14 21 15 20 22 23 17 16 13 12 17 16 12 10 11 12 15 16 17 49 50 50 52 53 54 54 56 57 58 59 60 61 62 62 62 63 64 65 65 67 67 68 69 70 69 69 70 71 71 72 71 72 72 72 72 72 73 73 73 73 73 73 72 73 73 73 72 72 73 74 74 74 74 73 74 74 74 74 75 75 75 75 75 76 75 75 74 74 73 73 71 71
16 16 13 12 14 14 16 21 11 23 24 25 23 19 25 30 26 14 13 13 15 16 28 18 49 49 49 51 52 53 54 55 56 58 59 59 61 61 61 61 62 63 65 65 67 67 68 69 70 70 70 70 70 71 71 72 72 72 72 72 72 72 73 73 73 73 73 72 72 73 73 73 74 73 73 73 73 74 73 73 74 74 74 75 75 75 75 75 76 76 75 75 74 73 73 73 71
16 16 15 10 9 11 8 14 12 10 19 19 23 23 33 28 24 26 15 16 16 17 28 25 47 49 49 50 51 51 52 54 55 57 58 58 60 61 61 61 61 62 65 65 66 67 68 69 69 70 70 70 70 71 71 72 72 72 72 72 72 72 73 73 73 73 73 72 71 72 73 73 73 73 72 72 73 73 74 73 73 74 74 75 75 75 75 75 75 75 75 75 75 74 73 73 72